Regional Weather Roundup
Issued by NWS

Home | Current Version | Previous Version | Text Only | Print | Product List | Glossary Off
Versions: 1 2 3 4 5 6 7 8 9 10 11 12 13 14 15 16 17 18 19 20 21 22 23 24 25 26 27 28 29 30 31 32 33 34 35 36 37 38 39 40 41 42 43 44 45 46 47 48 49 50

000
ASUS43 KTOP 042159
RWRKS

WEATHER ROUNDUP FOR KANSAS
NATIONAL WEATHER SERVICE GOODLAND KS
500 PM CDT SAT JUL 04 2015

NOTE:  "FAIR" INDICATES FEW OR NO CLOUDS BELOW 12,000 FEET WITH NO
SIGNIFICANT WEATHER AND/OR OBSTRUCTIONS TO VISIBILITY.

KSZ001>006-013>018-027>032-041>047-042300-
NORTHWEST KANSAS

CITY           SKY/WX    TMP DP  RH WIND       PRES   REMARKS
GOODLAND       SUNNY     91  56  30 S16       29.90F
HAYS           MOSUNNY   91  64  40 S17G24    29.90F
HILL CITY      MOSUNNY   95  61  32 S16G23    29.89F HX  95
RUSSELL        SUNNY     88  65  46 S20       29.91F
$$

KSZ061>065-074>080-084>089-042300-
SOUTHWEST KANSAS

CITY           SKY/WX    TMP DP  RH WIND       PRES   REMARKS
DODGE CITY     MOSUNNY   90  61  37 SE20G26   29.92F
ELKHART          N/A     93  60  33 S16         N/A
GARDEN CITY    SUNNY     88  65  46 S17G25    29.91F
GREAT BEND     MOSUNNY   88  64  45 S14G21    29.91F
LIBERAL        SUNNY     91  63  38 S16G24    29.93F
$$

KSZ066>073-081>083-090>101-042300-
SOUTHEAST KANSAS

CITY           SKY/WX    TMP DP  RH WIND       PRES   REMARKS
CHANUTE        MOSUNNY   86  66  51 SE8       29.95F
COFFEYVILLE    MOSUNNY   89  66  46 MISG      29.92F
HUTCHINSON     SUNNY     90  63  40 SE12G18   29.92F
MEDICINE LODGE   N/A     92  63  38 S9        29.89F
NEWTON         SUNNY     88  61  40 SE9       29.97F
PARSONS        MOSUNNY   87  68  52 S5        29.95F
WICHITA INTL   MOSUNNY   91  62  37 S7        29.92F
WICHITA JABRA  SUNNY     88  62  41 E8        29.93F
WINFIELD       SUNNY     88  64  44 SE10      29.93F
$$

KSZ007>012-019>026-033>040-048>060-102>105-042300-
NORTHEAST KANSAS

CITY           SKY/WX    TMP DP  RH WIND       PRES   REMARKS
CONCORDIA      SUNNY     86  61  42 SE16      29.93F
EMPORIA        MOSUNNY   87  60  40 SE8       29.95F
LAWRENCE       MOSUNNY   83  61  47 SE8       29.97F
MANHATTAN      MOSUNNY   86  64  47 SE9       29.93F
OLATHE IND     MOSUNNY   81  62  52 S7        29.98F
OLATHE EXE     MOSUNNY   79  62  56 SE7       29.97F
SALINA         MOSUNNY   91  61  36 SE13      29.91F
TOPEKA BILLARD PTSUNNY   83  65  54 SE12      29.96F
TOPEKA FORBES  PTSUNNY   85  64  49 E9        29.96F
$$



USA.gov is the U.S. government's official web portal to all federal, state and local government web resources and services.